Weather in Bellac

France     46°07′16″N   1°03′21″E
temp.,
°C
wind,
m/s
gust,
m/s
humid.,
%
clouds,
%
prec.,
mm/h
press.,
hPa
HPBL,
m
4 march, thu
thu401:00+6se12960 0.0 102623
04:00+5se129634 0.0 102532
07:00+5se129748 0.0 102436
10:00+9ssw118083 0.0 1024232
13:00+14w126791 0.0 1022795
16:00+13nw237399 0.4 1020754
19:00+9n129798 0.5 101965
22:00+6nne1497100 0.0 1021119
5 march, fri
fri501:00+4ne259899 0.0 1021157
04:00+4nne269951 0.0 1021173
07:00+3ne299943 0.0 1022287
10:00+6ne489185 0.0 1022526
13:00+8ne477592 0.0 1022766
16:00+8ne4769100 0.0 1022918
19:00+6ne4876100 0.0 1023908
22:00+5ne497789 0.0 1025790
6 march, sat
sat601:00+2ne3118672 0.0 1026504
04:000ne310890 0.0 1026419
07:00−2nne28960 0.0 1026286
10:00+3ne38739 0.0 1027452
13:00+9ne36565 0.0 1026916
16:00+10ne35550 0.0 10241042
19:00+4nne27780 0.0 1024246
22:00+1ne24940 0.0 1026100
7 march, sun
sun701:000e11960 0.0 102622
04:00−1se11970 0.0 102521
07:00−1se11980 0.0 102521
10:00+5s13751 0.0 1025358
13:00+11wsw22530 0.0 10231232
16:00+11wnw22533 0.0 10211469
19:00+4n12862 0.0 102125
22:00+1ne12966 0.0 102228
8 march, mon
mon801:000ene119512 0.0 102222
04:00−1nne11933 0.0 102221
07:00−2nne119410 0.0 102221
10:00+5nne24630 0.0 1023340
13:00+9n234523 0.0 10231076
16:00+9n33440 0.0 10211225
19:00+3n22720 0.0 102249
22:000ne12840 0.0 102422